| time (UTC) | temp C | wind direction | speed KPH | gust KPH | rain 1hr cm | rain 24hr cm | rain mn cm | humidity % | barometer mb |
| 20260503223032 | 26 | 360 | 6.4 | 17.7 | 0.00 | 0.00 | 0.00 | 33 | 1016.0 |
| 20260503221535 | 27 | 337 | 6.4 | 25.7 | 0.00 | 0.00 | 0.00 | 33 | 1016.1 |
| 20260503220029 | 27 | 339 | 9.7 | 20.9 | 0.00 | 0.00 | 0.00 | 32 | 1016.2 |
| 20260503214528 | 27 | 346 | 11.3 | 22.5 | 0.00 | 0.00 | 0.00 | 33 | 1016.4 |
| 20260503213033 | 27 | 10 | 11.3 | 24.1 | 0.00 | 0.00 | 0.00 | 32 | 1016.6 |
| 20260503211532 | 27 | 9 | 9.7 | 22.5 | 0.00 | 0.00 | 0.00 | 31 | 1016.8 |
| 20260503210029 | 27 | 307 | 8.0 | 20.9 | 0.00 | 0.00 | 0.00 | 33 | 1017.0 |
| 20260503204530 | 27 | 322 | 9.7 | 25.7 | 0.00 | 0.00 | 0.00 | 32 | 1017.4 |
| 20260503203036 | 27 | 22 | 9.7 | 22.5 | 0.00 | 0.00 | 0.00 | 32 | 1017.7 |
| 20260503201530 | 27 | 360 | 8.0 | 16.1 | 0.00 | 0.00 | 0.00 | 31 | 1018.0 |
| 20260503200031 | 27 | 17 | 3.2 | 24.1 | 0.00 | 0.00 | 0.00 | 33 | 1018.2 |
| 20260503194531 | 27 | 347 | 8.0 | 22.5 | 0.00 | 0.00 | 0.00 | 32 | 1018.6 |
| 20260503193031 | 27 | 5 | 11.3 | 27.4 | 0.00 | 0.00 | 0.00 | 35 | 1018.7 |
| 20260503191533 | 27 | 348 | 6.4 | 24.1 | 0.00 | 0.00 | 0.00 | 34 | 1018.8 |
| 20260503190028 | 27 | 340 | 8.0 | 25.7 | 0.00 | 0.00 | 0.00 | 34 | 1019.1 |
| 20260503184528 | 27 | 318 | 6.4 | 17.7 | 0.00 | 0.00 | 0.00 | 36 | 1019.2 |
| 20260503183031 | 26 | 58 | 11.3 | 24.1 | 0.00 | 0.00 | 0.00 | 35 | 1019.5 |
| 20260503181530 | 27 | 350 | 4.8 | 20.9 | 0.00 | 0.00 | 0.00 | 39 | 1019.7 |
| 20260503180030 | 26 | 28 | 8.0 | 22.5 | 0.00 | 0.00 | 0.00 | 38 | 1020.1 |
| 20260503174530 | 26 | 321 | 6.4 | 19.3 | 0.00 | 0.00 | 0.00 | 41 | 1020.3 |
| 20260503173031 | 26 | 340 | 8.0 | 20.9 | 0.00 | 0.00 | 0.00 | 44 | 1020.6 |
| 20260503171530 | 25 | 38 | 8.0 | 22.5 | 0.00 | 0.00 | 0.00 | 43 | 1020.8 |
| 20260503081531 | 12 | 0 | 0.0 | 0.0 | 0.00 | 0.00 | 0.00 | 72 | 1020.0 |
| 20260503071532 | 13 | 0 | 0.0 | 0.0 | 0.00 | 0.00 | 0.00 | 66 | 1020.2 |
| 20260503054535 | 16 | 0 | 0.0 | 0.0 | 0.00 | 0.00 | 0.00 | 60 | 1020.1 |
| 20260503053026 | 16 | 0 | 0.0 | 0.0 | 0.00 | 0.00 | 0.00 | 60 | 1020.2 |
| 20260503051525 | 16 | 314 | 1.6 | 4.8 | 0.00 | 0.00 | 0.00 | 60 | 1020.0 |
| 20260503050036 | 16 | 0 | 0.0 | 0.0 | 0.00 | 0.00 | 0.00 | 62 | 1019.9 |
| 20260503044531 | 16 | 0 | 0.0 | 0.0 | 0.00 | 0.00 | 0.00 | 64 | 1020.0 |
| 20260503043030 | 16 | 0 | 0.0 | 0.0 | 0.00 | 0.00 | 0.00 | 65 | 1020.0 |
| 20260503041537 | 16 | 0 | 0.0 | 0.0 | 0.00 | 0.00 | 0.00 | 65 | 1019.9 |
| 20260503040028 | 16 | 0 | 0.0 | 0.0 | 0.00 | 0.00 | 0.00 | 63 | 1020.0 |
| 20260503034528 | 17 | 0 | 0.0 | 0.0 | 0.00 | 0.00 | 0.00 | 61 | 1019.9 |
| 20260503033029 | 17 | 0 | 0.0 | 0.0 | 0.00 | 0.00 | 0.00 | 57 | 1019.9 |
| 20260503031530 | 18 | 0 | 0.0 | 4.8 | 0.00 | 0.00 | 0.00 | 55 | 1019.7 |
| 20260503030038 | 18 | 316 | 0.0 | 3.2 | 0.00 | 0.00 | 0.00 | 53 | 1019.6 |
| 20260503024528 | 19 | 316 | 0.0 | 3.2 | 0.00 | 0.00 | 0.00 | 50 | 1019.5 |
| 20260503023027 | 20 | 0 | 0.0 | 3.2 | 0.00 | 0.00 | 0.00 | 47 | 1019.4 |
| 20260503021527 | 20 | 316 | 1.6 | 4.8 | 0.00 | 0.00 | 0.00 | 47 | 1019.3 |
| 20260503020027 | 20 | 318 | 0.0 | 4.8 | 0.00 | 0.00 | 0.00 | 47 | 1019.1 |
| 20260503014527 | 21 | 0 | 0.0 | 1.6 | 0.00 | 0.00 | 0.00 | 45 | 1019.2 |
| 20260503013032 | 21 | 67 | 0.0 | 3.2 | 0.00 | 0.00 | 0.00 | 42 | 1019.0 |
| 20260503011528 | 22 | 0 | 0.0 | 3.2 | 0.00 | 0.00 | 0.00 | 38 | 1018.8 |
| 20260503010034 | 23 | 0 | 0.0 | 3.2 | 0.00 | 0.00 | 0.00 | 38 | 1018.8 |
| 20260503004530 | 23 | 0 | 0.0 | 3.2 | 0.00 | 0.00 | 0.00 | 37 | 1018.6 |
| 20260503003029 | 23 | 0 | 0.0 | 4.8 | 0.00 | 0.00 | 0.00 | 38 | 1018.4 |
| 20260503001529 | 24 | 81 | 1.6 | 6.4 | 0.00 | 0.00 | 0.00 | 35 | 1018.5 |
| 20260503000027 | 25 | 140 | 1.6 | 6.4 | 0.00 | 0.00 | 0.00 | 32 | 1018.5 |
| 20260502234537 | 24 | 23 | 0.0 | 6.4 | 0.00 | 0.00 | 0.00 | 33 | 1018.6 |
| 20260502233028 | 25 | 82 | 1.6 | 9.7 | 0.00 | 0.00 | 0.00 | 33 | 1018.7 |
| 20260502231529 | 25 | 40 | 1.6 | 8.0 | 0.00 | 0.00 | 0.00 | 32 | 1018.7 |
| 20260502230033 | 25 | 0 | 1.6 | 14.5 | 0.00 | 0.00 | 0.00 | 30 | 1018.7 |
| 20260502224529 | 25 | 63 | 1.6 | 11.3 | 0.00 | 0.00 | 0.00 | 30 | 1018.8 |